This is the latest recevied weather packets stored in our database for station/object IU1INZ-13. If no packets are shown the sender has not sent any weather packets the latest 10 day(s).
| Time | Temp. | Humidity | Pressure | Rain* | Wind** | Luminosity | Snow |
|---|---|---|---|---|---|---|---|
| 1778065234 | 17.22° C | 67% | 1007.6 hPa | 0 mm | - | - | - |
| 1778064333 | 16.67° C | 70% | 1007.6 hPa | 0 mm | - | - | - |
| 1778063435 | 16.11° C | 73% | 1007.7 hPa | 0 mm | - | - | - |
| 1778062533 | 15° C | 77% | 1007.6 hPa | 0 mm | - | - | - |
| 1778061633 | 13.89° C | 84% | 1007.7 hPa | 0 mm | - | - | - |
| 1778060736 | 12.22° C | 88% | 1007.8 hPa | 0.76 mm | - | - | - |
| 1778059844 | 12.22° C | 91% | 1008.1 hPa | 2.79 mm | - | - | - |
| 1778058933 | 11.11° C | 92% | 1008.2 hPa | 5.59 mm | - | - | - |
| 1778058033 | 11.11° C | 91% | 1008.4 hPa | 5.59 mm | - | - | - |
| 1778057133 | 10.56° C | 91% | 1008.5 hPa | 4.57 mm | - | - | - |
| 1778056241 | 10.56° C | 91% | 1008.5 hPa | 3.56 mm | - | - | - |
| 1778055334 | 10.56° C | 91% | 1008.5 hPa | 1.78 mm | - | - | - |
| 1778054434 | 10.56° C | 92% | 1008.5 hPa | 1.78 mm | - | - | - |
| 1778053534 | 10.56° C | 92% | 1008.4 hPa | 1.78 mm | - | - | - |
| 1778052629 | 10.56° C | 92% | 1008.4 hPa | 2.29 mm | - | - | - |
| 1778051748 | 11.11° C | 92% | 1008.5 hPa | 2.54 mm | - | - | - |
| 1778050837 | 11.67° C | 93% | 1008.3 hPa | 3.56 mm | - | - | - |
| 1778049941 | 12.22° C | 93% | 1008.4 hPa | 5.59 mm | - | - | - |
| 1778049035 | 11.67° C | 93% | 1008.5 hPa | 6.1 mm | - | - | - |
| 1778048135 | 11.67° C | 93% | 1008.6 hPa | 6.35 mm | - | - | - |
| 1778047243 | 11.67° C | 93% | 1008.6 hPa | 5.33 mm | - | - | - |
| 1778046342 | 11.67° C | 93% | 1008.7 hPa | 3.56 mm | - | - | - |
| 1778045445 | 11.67° C | 93% | 1008.8 hPa | 2.79 mm | - | - | - |
| 1778044533 | 11.67° C | 93% | 1008.9 hPa | 1.78 mm | - | - | - |
| 1778043633 | 11.67° C | 93% | 1008.9 hPa | 1.27 mm | - | - | - |
* Rain latest hour (hover to see other rain measurements)
** Current wind speed in m/s (hover to see current wind gust speed)